QPF
0.00 0.00 0.00 0.00 0.00 0.00 0.00 0.01 0.04 0.06 0.10 0.14 0.18 0.21 0.24 0.27 0.26 0.20 0.13 0.08 0.06 0.05 0.04 0.06 0.08 0.10 0.10 0.12 0.14 0.17 0.18 0.15 0.15 0.14 0.13 0.13 0.13 0.11 0.11 0.10 0.08 0.07 0.08 0.09
0.00 0.00 0.00 0.00 0.00 0.00 0.00 0.00 0.02 0.03 0.06 0.07 0.08 0.10 0.12 0.11 0.09 0.07 0.04 0.03 0.01 0.01 0.00 0.01 0.01 0.01 0.02 0.03 0.04 0.05 0.05 0.05 0.04 0.05 0.07 0.07 0.06 0.05 0.05 0.05 0.05 0.06 0.07 0.09
0.00 0.00 0.00 0.00 0.00 0.00 0.00 0.00 0.01 0.02 0.02 0.02 0.03 0.03 0.04 0.04 0.04 0.03 0.02 0.01 0.00 0.00 0.00 0.00 0.00 0.00 0.00 0.00 0.00 0.00 0.01 0.01 0.01 0.01 0.01 0.01 0.01 0.01 0.02 0.02 0.02 0.02 0.02 0.03
0.00 0.00 0.00 0.00 0.00 0.00 0.00 0.00 0.00 0.00 0.00 0.01 0.01 0.01 0.01 0.01 0.01 0.02 0.01 0.00 0.00 0.00 0.00 0.00 0.00 0.00 0.00 0.00 0.00 0.00 0.00 0.00 0.00 0.00 0.01 0.01 0.01 0.01 0.01 0.01 0.00 0.00 0.00 0.00
0.00 0.00 0.00 0.00 0.00 0.00 0.00 0.00 0.00 0.00 0.00 0.00 0.00 0.00 0.00 0.00 0.00 0.00 0.00 0.00 0.00 0.00 0.00 0.00 0.00 0.00 0.00 0.00 0.00 0.00 0.00 0.00 0.00 0.00 0.00 0.00 0.00 0.00 0.00 0.00 0.00 0.00 0.00 0.00
0.00 0.00 0.00 0.00 0.00 0.00 0.00 0.00 0.00 0.00 0.00 0.00 0.00 0.01 0.00 0.00 0.00 0.00 0.00 0.00 0.00 0.00 0.00 0.00 0.00 0.00 0.00 0.00 0.00 0.00 0.00 0.00 0.00 0.00 0.00 0.01 0.01 0.00 0.00 0.00 0.00 0.00 0.00 0.00
0.00 0.00 0.00 0.00 0.00 0.00 0.00 0.00 0.00 0.00 0.00 0.00 0.00 0.00 0.00 0.00 0.00 0.00 0.00 0.00 0.00 0.00 0.00 0.00 0.00 0.00 0.00 0.00 0.00 0.00 0.00 0.00 0.00 0.00 0.00 0.01 0.02 0.01 0.00 0.00 0.00 0.00 0.00 0.00
0.00 0.00 0.00 0.00 0.00 0.00 0.00 0.00 0.00 0.00 0.00 0.00 0.00 0.00 0.00 0.00 0.00 0.00 0.00 0.00 0.00 0.00 0.00 0.00 0.00 0.00 0.00 0.00 0.00 0.00 0.00 0.00 0.00 0.00 0.01 0.01 0.02 0.01 0.00 0.00 0.01 0.01 0.01 0.01
0.00 0.00 0.00 0.00 0.00 0.00 0.00 0.00 0.00 0.00 0.00 0.00 0.00 0.00 0.00 0.00 0.00 0.00 0.00 0.00 0.00 0.00 0.00 0.00 0.00 0.00 0.00 0.00 0.00 0.00 0.00 0.01 0.00 0.00 0.01 0.00 0.01 0.00 0.01 0.01 0.01 0.01 0.01 0.01
0.00 0.00 0.00 0.00 0.00 0.00 0.00 0.00 0.00 0.00 0.00 0.00 0.00 0.00 0.00 0.00 0.00 0.00 0.00 0.00 0.00 0.00 0.00 0.00 0.00 0.00 0.00 0.00 0.00 0.00 0.00 0.00 0.00 0.00 0.01 0.00 0.00 0.00 0.00 0.01 0.00 0.01 0.01 0.01
0.00 0.00 0.00 0.00 0.00 0.00 0.00 0.00 0.00 0.00 0.00 0.00 0.00 0.00 0.00 0.00 0.00 0.00 0.00 0.00 0.00 0.00 0.00 0.00 0.00 0.00 0.00 0.00 0.00 0.00 0.00 0.00 0.00 0.00 0.01 0.01 0.00 0.00 0.00 0.00 0.00 0.00 0.00 0.01
0.00 0.00 0.00 0.00 0.00 0.00 0.00 0.00 0.00 0.00 0.00 0.00 0.00 0.00 0.00 0.00 0.00 0.00 0.00 0.00 0.00 0.00 0.00 0.00 0.00 0.00 0.00 0.00 0.00 0.00 0.00 0.00 0.00 0.00 0.00 0.00 0.01 0.01 0.00 0.00 0.00 0.00 0.00 0.00
0.00 0.00 0.00 0.00 0.00 0.00 0.00 0.00 0.00 0.00 0.00 0.00 0.00 0.00 0.00 0.00 0.00 0.00 0.00 0.00 0.00 0.00 0.00 0.00 0.00 0.00 0.00 0.00 0.00 0.00 0.00 0.00 0.00 0.00 0.00 0.00 0.00 0.01 0.02 0.01 0.00 0.00 0.00 0.00
0.00 0.00 0.00 0.00 0.00 0.00 0.00 0.00 0.00 0.00 0.00 0.00 0.00 0.00 0.00 0.00 0.00 0.00 0.00 0.00 0.00 0.00 0.00 0.00 0.00 0.00 0.00 0.00 0.00 0.00 0.00 0.00 0.00 0.00 0.00 0.00 0.00 0.00 0.01 0.02 0.03 0.02 0.00 0.00
0.00 0.00 0.00 0.00 0.00 0.00 0.00 0.00 0.00 0.00 0.00 0.00 0.00 0.00 0.00 0.00 0.00 0.00 0.00 0.00 0.00 0.00 0.00 0.00 0.00 0.00 0.00 0.00 0.00 0.00 0.00 0.00 0.00 0.00 0.00 0.00 0.00 0.00 0.00 0.00 0.01 0.01 0.02 0.01
0.00 0.00 0.00 0.00 0.00 0.00 0.00 0.00 0.00 0.00 0.00 0.00 0.00 0.00 0.00 0.00 0.00 0.00 0.00 0.00 0.00 0.00 0.00 0.00 0.00 0.00 0.00 0.00 0.00 0.00 0.00 0.00 0.00 0.00 0.00 0.00 0.00 0.00 0.00 0.00 0.00 0.00 0.01 0.01
0.00 0.00 0.00 0.00 0.00 0.00 0.00 0.00 0.00 0.00 0.00 0.00 0.00 0.00 0.00 0.00 0.00 0.00 0.00 0.00 0.00 0.00 0.00 0.00 0.00 0.00 0.00 0.00 0.00 0.00 0.00 0.00 0.00 0.00 0.00 0.00 0.00 0.00 0.00 0.00 0.00 0.00 0.00 0.00
0.00 0.00 0.00 0.00 0.00 0.00 0.00 0.00 0.00 0.00 0.00 0.00 0.00 0.00 0.00 0.00 0.00 0.00 0.00 0.00 0.00 0.00 0.00 0.00 0.00 0.00 0.00 0.00 0.00 0.00 0.00 0.00 0.00 0.00 0.00 0.00 0.00 0.00 0.00 0.00 0.00 0.00 0.00 0.00
0.00 0.00 0.00 0.00 0.00 0.00 0.00 0.00 0.00 0.00 0.00 0.00 0.00 0.00 0.00 0.00 0.00 0.00 0.00 0.00 0.00 0.00 0.00 0.00 0.00 0.00 0.00 0.00 0.00 0.00 0.00 0.00 0.00 0.00 0.00 0.00 0.00 0.00 0.00 0.00 0.00 0.00 0.00 0.00
0.00 0.00 0.00 0.00 0.00 0.00 0.00 0.00 0.00 0.00 0.00 0.00 0.00 0.00 0.00 0.00 0.00 0.00 0.00 0.00 0.00 0.00 0.00 0.00 0.00 0.00 0.00 0.00 0.00 0.00 0.00 0.00 0.00 0.00 0.00 0.00 0.00 0.00 0.00 0.00 0.00 0.00 0.00 0.00
0.00 0.00 0.00 0.00 0.00 0.00 0.00 0.00 0.00 0.00 0.00 0.00 0.00 0.00 0.00 0.00 0.00 0.00 0.00 0.00 0.00 0.00 0.00 0.00 0.00 0.00 0.00 0.00 0.00 0.00 0.00 0.00 0.00 0.00 0.00 0.00 0.00 0.00 0.00 0.00 0.00 0.00 0.00 0.00
0.00 0.00 0.00 0.00 0.00 0.00 0.00 0.00 0.00 0.00 0.00 0.00 0.00 0.00 0.00 0.00 0.00 0.00 0.00 0.00 0.00 0.00 0.00 0.00 0.00 0.00 0.00 0.00 0.00 0.00 0.00 0.00 0.00 0.00 0.00 0.00 0.00 0.00 0.00 0.00 0.00 0.00 0.00 0.00
0.00 0.00 0.00 0.00 0.00 0.00 0.00 0.00 0.00 0.00 0.00 0.00 0.00 0.00 0.00 0.00 0.00 0.00 0.00 0.00 0.00 0.00 0.00 0.00 0.00 0.00 0.00 0.00 0.00 0.00 0.00 0.00 0.00 0.00 0.00 0.00 0.00 0.00 0.00 0.00 0.00 0.00 0.00 0.00
0.00 0.00 0.00 0.00 0.00 0.00 0.00 0.00 0.00 0.00 0.00 0.00 0.00 0.00 0.00 0.00 0.00 0.00 0.00 0.00 0.00 0.00 0.00 0.00 0.00 0.00 0.00 0.00 0.00 0.00 0.00 0.00 0.00 0.00 0.00 0.00 0.00 0.00 0.00 0.00 0.00 0.00 0.00 0.00
0.00 0.00 0.00 0.00 0.00 0.00 0.00 0.00 0.00 0.00 0.00 0.00 0.00 0.00 0.00 0.00 0.00 0.00 0.00 0.00 0.00 0.00 0.00 0.00 0.00 0.00 0.00 0.00 0.00 0.00 0.00 0.00 0.00 0.00 0.00 0.00 0.00 0.00 0.00 0.00 0.00 0.00 0.00 0.00
0.00 0.00 0.00 0.00 0.00 0.00 0.00 0.00 0.00 0.00 0.00 0.00 0.00 0.00 0.00 0.00 0.00 0.00 0.00 0.00 0.00 0.00 0.00 0.00 0.00 0.00 0.00 0.00 0.00 0.00 0.00 0.00 0.00 0.00 0.00 0.00 0.00 0.00 0.00 0.00 0.00 0.00 0.00 0.00
0.00 0.00 0.00 0.00 0.00 0.00 0.00 0.00 0.00 0.00 0.00 0.00 0.00 0.00 0.00 0.00 0.00 0.00 0.00 0.00 0.00 0.00 0.00 0.00 0.00 0.00 0.00 0.00 0.00 0.00 0.00 0.00 0.00 0.00 0.00 0.00 0.00 0.00 0.00 0.00 0.00 0.00 0.00 0.00
MSLP
1019.99 1020.40 1020.90 1021.49 1022.14 1022.83 1023.49 1024.06 1024.50 1024.73 1024.75 1024.53 1024.09 1023.48 1022.74 1021.92 1021.09 1020.27 1019.51 1018.81 1018.18 1017.62 1017.11 1016.66 1016.26 1015.91 1015.63 1015.40 1015.23 1015.11 1015.02 1014.93 1014.83 1014.70 1014.53 1014.31 1014.05 1013.78 1013.51 1013.29 1013.11 1013.00 1012.94 1012.93
1019.95 1020.38 1020.88 1021.45 1022.06 1022.67 1023.24 1023.71 1024.03 1024.18 1024.12 1023.87 1023.42 1022.84 1022.16 1021.42 1020.68 1019.96 1019.29 1018.67 1018.11 1017.60 1017.14 1016.73 1016.36 1016.05 1015.80 1015.60 1015.46 1015.36 1015.29 1015.22 1015.13 1015.00 1014.82 1014.60 1014.35 1014.10 1013.85 1013.64 1013.49 1013.39 1013.35 1013.34
1019.90 1020.31 1020.77 1021.28 1021.81 1022.32 1022.78 1023.14 1023.37 1023.43 1023.32 1023.05 1022.63 1022.09 1021.49 1020.86 1020.23 1019.62 1019.05 1018.53 1018.04 1017.60 1017.20 1016.84 1016.52 1016.25 1016.04 1015.88 1015.77 1015.70 1015.65 1015.59 1015.51 1015.39 1015.22 1015.02 1014.79 1014.55 1014.33 1014.15 1014.02 1013.94 1013.90 1013.88
1019.86 1020.22 1020.61 1021.03 1021.46 1021.86 1022.20 1022.46 1022.59 1022.60 1022.46 1022.19 1021.82 1021.36 1020.86 1020.34 1019.82 1019.32 1018.86 1018.42 1018.02 1017.64 1017.29 1016.98 1016.71 1016.48 1016.30 1016.18 1016.10 1016.06 1016.03 1015.99 1015.92 1015.82 1015.67 1015.49 1015.29 1015.08 1014.89 1014.74 1014.63 1014.56 1014.52 1014.49
1019.83 1020.12 1020.42 1020.74 1021.06 1021.35 1021.59 1021.75 1021.83 1021.79 1021.65 1021.42 1021.11 1020.74 1020.34 1019.93 1019.53 1019.13 1018.76 1018.40 1018.05 1017.72 1017.42 1017.14 1016.89 1016.69 1016.55 1016.45 1016.40 1016.37 1016.36 1016.35 1016.30 1016.23 1016.11 1015.96 1015.79 1015.62 1015.46 1015.34 1015.25 1015.19 1015.15 1015.10
1019.77 1019.98 1020.21 1020.43 1020.65 1020.85 1021.01 1021.10 1021.13 1021.09 1020.97 1020.79 1020.56 1020.29 1019.99 1019.69 1019.38 1019.07 1018.76 1018.45 1018.15 1017.84 1017.55 1017.28 1017.05 1016.86 1016.72 1016.63 1016.59 1016.59 1016.60 1016.60 1016.59 1016.55 1016.47 1016.36 1016.23 1016.11 1015.99 1015.90 1015.83 1015.78 1015.73 1015.67
1019.62 1019.78 1019.94 1020.10 1020.25 1020.38 1020.48 1020.55 1020.56 1020.53 1020.46 1020.34 1020.19 1020.01 1019.82 1019.60 1019.37 1019.13 1018.86 1018.58 1018.28 1017.98 1017.68 1017.40 1017.15 1016.95 1016.80 1016.71 1016.68 1016.68 1016.71 1016.74 1016.76 1016.76 1016.73 1016.68 1016.61 1016.53 1016.46 1016.40 1016.35 1016.31 1016.26 1016.18
1019.34 1019.48 1019.61 1019.73 1019.85 1019.95 1020.03 1020.10 1020.13 1020.13 1020.11 1020.07 1019.99 1019.90 1019.79 1019.65 1019.48 1019.27 1019.03 1018.76 1018.45 1018.13 1017.80 1017.49 1017.20 1016.97 1016.80 1016.70 1016.66 1016.67 1016.71 1016.77 1016.83 1016.88 1016.90 1016.91 1016.90 1016.88 1016.86 1016.84 1016.82 1016.78 1016.73 1016.63
1018.91 1019.04 1019.18 1019.31 1019.43 1019.55 1019.65 1019.74 1019.81 1019.87 1019.91 1019.93 1019.93 1019.91 1019.86 1019.78 1019.65 1019.47 1019.24 1018.96 1018.63 1018.28 1017.91 1017.56 1017.24 1016.97 1016.77 1016.64 1016.59 1016.59 1016.65 1016.73 1016.83 1016.93 1017.02 1017.10 1017.16 1017.20 1017.23 1017.25 1017.25 1017.22 1017.16 1017.06
1018.33 1018.50 1018.67 1018.83 1019.00 1019.16 1019.32 1019.46 1019.59 1019.70 1019.80 1019.89 1019.95 1019.98 1019.98 1019.93 1019.83 1019.67 1019.45 1019.16 1018.82 1018.44 1018.04 1017.65 1017.29 1016.99 1016.75 1016.59 1016.52 1016.52 1016.58 1016.69 1016.83 1016.98 1017.13 1017.27 1017.40 1017.50 1017.58 1017.64 1017.66 1017.65 1017.59 1017.47
1017.65 1017.86 1018.08 1018.32 1018.56 1018.79 1019.01 1019.22 1019.41 1019.59 1019.74 1019.87 1019.98 1020.05 1020.09 1020.07 1019.99 1019.84 1019.63 1019.34 1018.99 1018.60 1018.19 1017.78 1017.39 1017.06 1016.79 1016.61 1016.52 1016.51 1016.57 1016.70 1016.86 1017.06 1017.26 1017.46 1017.64 1017.80 1017.93 1018.02 1018.07 1018.07 1018.01 1017.89
1016.94 1017.19 1017.48 1017.79 1018.11 1018.42 1018.72 1019.00 1019.25 1019.48 1019.68 1019.85 1019.98 1020.08 1020.13 1020.13 1020.07 1019.95 1019.75 1019.48 1019.15 1018.77 1018.37 1017.95 1017.56 1017.21 1016.93 1016.73 1016.61 1016.59 1016.64 1016.77 1016.95 1017.17 1017.41 1017.66 1017.89 1018.09 1018.26 1018.38 1018.45 1018.47 1018.42 1018.30
1016.26 1016.55 1016.89 1017.27 1017.66 1018.06 1018.43 1018.78 1019.09 1019.36 1019.59 1019.78 1019.93 1020.03 1020.10 1020.11 1020.07 1019.97 1019.80 1019.57 1019.27 1018.93 1018.55 1018.17 1017.79 1017.44 1017.15 1016.93 1016.79 1016.75 1016.79 1016.91 1017.09 1017.32 1017.57 1017.84 1018.10 1018.34 1018.54 1018.69 1018.79 1018.82 1018.79 1018.69
1015.63 1015.95 1016.34 1016.78 1017.24 1017.71 1018.15 1018.54 1018.90 1019.20 1019.45 1019.65 1019.80 1019.91 1019.97 1020.00 1019.98 1019.91 1019.78 1019.59 1019.35 1019.07 1018.74 1018.39 1018.04 1017.71 1017.42 1017.19 1017.04 1016.96 1016.98 1017.07 1017.23 1017.45 1017.70 1017.98 1018.25 1018.51 1018.73 1018.91 1019.03 1019.09 1019.09 1019.03
1015.09 1015.42 1015.85 1016.34 1016.85 1017.37 1017.86 1018.30 1018.69 1019.01 1019.26 1019.46 1019.61 1019.71 1019.78 1019.82 1019.82 1019.78 1019.69 1019.57 1019.39 1019.17 1018.90 1018.60 1018.30 1017.99 1017.71 1017.47 1017.29 1017.19 1017.16 1017.22 1017.34 1017.53 1017.77 1018.03 1018.31 1018.57 1018.81 1019.01 1019.15 1019.25 1019.29 1019.27
1014.60 1014.95 1015.41 1015.93 1016.49 1017.04 1017.57 1018.04 1018.45 1018.78 1019.05 1019.24 1019.39 1019.48 1019.55 1019.59 1019.61 1019.61 1019.57 1019.50 1019.39 1019.23 1019.02 1018.78 1018.52 1018.24 1017.97 1017.72 1017.52 1017.38 1017.31 1017.32 1017.40 1017.55 1017.75 1017.99 1018.25 1018.51 1018.76 1018.97 1019.15 1019.28 1019.37 1019.40
1014.16 1014.53 1015.00 1015.55 1016.14 1016.72 1017.28 1017.77 1018.20 1018.54 1018.81 1019.00 1019.14 1019.24 1019.31 1019.37 1019.41 1019.43 1019.43 1019.41 1019.35 1019.25 1019.11 1018.92 1018.69 1018.44 1018.17 1017.92 1017.70 1017.52 1017.40 1017.36 1017.38 1017.48 1017.64 1017.85 1018.09 1018.34 1018.59 1018.83 1019.03 1019.20 1019.33 1019.43
1013.75 1014.13 1014.62 1015.18 1015.79 1016.39 1016.96 1017.47 1017.91 1018.27 1018.55 1018.75 1018.90 1019.01 1019.09 1019.16 1019.22 1019.27 1019.31 1019.33 1019.31 1019.26 1019.16 1019.01 1018.81 1018.58 1018.32 1018.05 1017.80 1017.59 1017.43 1017.33 1017.31 1017.36 1017.47 1017.65 1017.86 1018.10 1018.35 1018.60 1018.83 1019.03 1019.20 1019.35
1013.37 1013.76 1014.25 1014.82 1015.42 1016.03 1016.61 1017.13 1017.59 1017.96 1018.26 1018.49 1018.65 1018.78 1018.89 1018.98 1019.06 1019.14 1019.21 1019.26 1019.28 1019.26 1019.19 1019.06 1018.88 1018.66 1018.40 1018.12 1017.85 1017.60 1017.40 1017.26 1017.19 1017.19 1017.27 1017.41 1017.60 1017.83 1018.08 1018.33 1018.57 1018.80 1019.01 1019.20
1013.05 1013.43 1013.90 1014.45 1015.04 1015.63 1016.21 1016.74 1017.20 1017.59 1017.92 1018.18 1018.38 1018.55 1018.68 1018.81 1018.92 1019.03 1019.13 1019.20 1019.24 1019.24 1019.19 1019.08 1018.91 1018.68 1018.42 1018.14 1017.84 1017.57 1017.34 1017.16 1017.06 1017.02 1017.06 1017.18 1017.35 1017.56 1017.80 1018.05 1018.31 1018.56 1018.79 1019.01
1012.82 1013.16 1013.59 1014.09 1014.64 1015.20 1015.75 1016.27 1016.74 1017.15 1017.50 1017.80 1018.05 1018.26 1018.45 1018.61 1018.77 1018.91 1019.03 1019.12 1019.18 1019.19 1019.15 1019.04 1018.88 1018.66 1018.39 1018.09 1017.79 1017.50 1017.25 1017.04 1016.91 1016.85 1016.86 1016.95 1017.10 1017.30 1017.53 1017.79 1018.05 1018.31 1018.55 1018.79
1012.73 1013.00 1013.35 1013.77 1014.24 1014.73 1015.24 1015.72 1016.19 1016.61 1016.99 1017.33 1017.63 1017.89 1018.13 1018.35 1018.55 1018.72 1018.87 1018.99 1019.06 1019.08 1019.04 1018.94 1018.78 1018.55 1018.29 1017.99 1017.68 1017.38 1017.11 1016.90 1016.74 1016.66 1016.66 1016.73 1016.86 1017.05 1017.27 1017.52 1017.79 1018.05 1018.30 1018.54
1012.80 1012.96 1013.19 1013.50 1013.86 1014.26 1014.69 1015.13 1015.57 1015.99 1016.39 1016.76 1017.10 1017.42 1017.71 1017.98 1018.23 1018.44 1018.62 1018.75 1018.84 1018.87 1018.84 1018.74 1018.58 1018.36 1018.10 1017.80 1017.50 1017.20 1016.93 1016.71 1016.55 1016.45 1016.43 1016.49 1016.61 1016.78 1016.99 1017.24 1017.50 1017.76 1018.02 1018.27
1013.01 1013.04 1013.13 1013.30 1013.53 1013.82 1014.15 1014.52 1014.91 1015.31 1015.71 1016.11 1016.49 1016.85 1017.19 1017.50 1017.78 1018.03 1018.24 1018.39 1018.50 1018.54 1018.51 1018.43 1018.27 1018.07 1017.82 1017.53 1017.24 1016.95 1016.69 1016.47 1016.30 1016.20 1016.17 1016.21 1016.31 1016.47 1016.67 1016.91 1017.16 1017.43 1017.69 1017.95
1013.34 1013.22 1013.17 1013.18 1013.27 1013.43 1013.66 1013.94 1014.27 1014.63 1015.02 1015.42 1015.81 1016.20 1016.57 1016.91 1017.23 1017.50 1017.73 1017.90 1018.02 1018.07 1018.06 1017.99 1017.85 1017.67 1017.44 1017.18 1016.90 1016.63 1016.38 1016.17 1016.00 1015.90 1015.86 1015.88 1015.96 1016.10 1016.29 1016.51 1016.76 1017.02 1017.29 1017.56
1013.70 1013.45 1013.26 1013.14 1013.10 1013.14 1013.26 1013.46 1013.71 1014.03 1014.38 1014.76 1015.15 1015.54 1015.91 1016.27 1016.59 1016.87 1017.11 1017.29 1017.42 1017.49 1017.49 1017.44 1017.33 1017.17 1016.98 1016.75 1016.51 1016.26 1016.03 1015.83 1015.67 1015.56 1015.51 1015.51 1015.57 1015.68 1015.84 1016.05 1016.28 1016.54 1016.81 1017.09
1014.02 1013.68 1013.39 1013.16 1013.01 1012.95 1012.98 1013.10 1013.28 1013.54 1013.84 1014.18 1014.54 1014.91 1015.27 1015.61 1015.92 1016.20 1016.43 1016.61 1016.74 1016.82 1016.85 1016.82 1016.74 1016.62 1016.47 1016.28 1016.08 1015.87 1015.67 1015.48 1015.33 1015.21 1015.14 1015.12 1015.15 1015.23 1015.36 1015.53 1015.75 1015.99 1016.26 1016.56
Thickness
5668 5664 5659 5650 5641 5634 5623 5613 5600 5594 5593 5596 5601 5604 5608 5613 5618 5624 5630 5634 5638 5641 5644 5647 5648 5649 5651 5652 5654 5655 5656 5656 5657 5659 5660 5662 5663 5665 5667 5668 5671 5672 5674 5675
5672 5668 5664 5654 5647 5640 5630 5623 5614 5610 5607 5613 5616 5617 5617 5621 5625 5629 5633 5638 5642 5644 5647 5649 5650 5650 5652 5653 5654 5655 5655 5655 5656 5657 5658 5659 5660 5661 5662 5663 5663 5664 5664 5664
5679 5674 5666 5651 5650 5643 5637 5633 5627 5618 5618 5625 5625 5625 5626 5629 5632 5634 5637 5640 5644 5646 5649 5651 5653 5653 5652 5653 5653 5653 5652 5652 5652 5653 5653 5653 5654 5655 5655 5654 5654 5653 5653 5652
5686 5679 5656 5653 5663 5655 5646 5642 5640 5637 5636 5636 5636 5636 5638 5639 5638 5638 5640 5642 5645 5648 5650 5653 5656 5656 5655 5654 5652 5650 5650 5649 5649 5648 5648 5648 5648 5647 5646 5646 5644 5643 5641 5641
5686 5675 5665 5661 5665 5661 5653 5647 5650 5647 5647 5648 5649 5645 5642 5646 5646 5645 5645 5647 5649 5653 5654 5655 5656 5657 5656 5654 5651 5648 5647 5647 5646 5645 5644 5643 5642 5641 5639 5638 5636 5633 5631 5631
5687 5676 5666 5669 5674 5673 5660 5649 5659 5656 5653 5654 5652 5638 5638 5649 5651 5651 5651 5652 5653 5656 5657 5656 5658 5659 5656 5653 5650 5647 5646 5646 5646 5644 5642 5639 5637 5636 5634 5632 5629 5627 5624 5623
5690 5684 5680 5681 5679 5672 5652 5654 5665 5664 5660 5657 5651 5648 5651 5656 5656 5656 5656 5656 5657 5658 5657 5658 5661 5661 5657 5654 5651 5649 5649 5647 5646 5644 5642 5638 5635 5632 5629 5627 5624 5621 5619 5617
5697 5688 5676 5687 5679 5673 5671 5676 5673 5668 5665 5660 5659 5660 5660 5660 5659 5659 5659 5659 5659 5659 5660 5663 5665 5663 5659 5656 5656 5655 5653 5650 5648 5645 5642 5638 5633 5629 5625 5621 5617 5614 5611 5609
5705 5694 5699 5695 5691 5689 5686 5682 5677 5672 5668 5666 5663 5662 5662 5663 5662 5663 5663 5663 5663 5663 5663 5666 5668 5667 5663 5663 5663 5660 5657 5653 5650 5647 5641 5636 5630 5625 5621 5616 5611 5607 5603 5600
5712 5709 5704 5701 5699 5692 5689 5686 5680 5676 5672 5669 5666 5665 5665 5666 5665 5665 5666 5667 5667 5667 5665 5667 5671 5672 5670 5669 5668 5665 5660 5656 5652 5647 5641 5635 5629 5623 5617 5611 5606 5602 5598 5595
5717 5718 5710 5705 5702 5696 5692 5689 5683 5679 5676 5672 5669 5667 5668 5668 5666 5667 5668 5670 5670 5668 5667 5670 5674 5674 5673 5671 5670 5667 5664 5659 5654 5648 5642 5634 5626 5618 5614 5607 5602 5598 5595 5593
5724 5730 5718 5711 5709 5705 5696 5690 5686 5681 5677 5675 5673 5670 5670 5669 5669 5669 5670 5671 5671 5671 5671 5673 5674 5674 5673 5672 5671 5668 5664 5659 5654 5649 5643 5637 5628 5620 5612 5609 5604 5600 5596 5594
5740 5739 5734 5727 5718 5711 5702 5696 5692 5687 5682 5678 5677 5674 5672 5671 5672 5671 5671 5671 5671 5673 5674 5674 5674 5672 5672 5672 5671 5669 5665 5661 5655 5650 5646 5641 5635 5627 5618 5611 5606 5603 5600 5597
5742 5737 5729 5725 5719 5714 5708 5703 5697 5691 5686 5682 5679 5676 5674 5673 5672 5671 5671 5671 5673 5675 5675 5674 5673 5672 5672 5673 5673 5671 5668 5662 5657 5652 5648 5644 5639 5634 5627 5620 5614 5609 5605 5602
5738 5737 5731 5727 5721 5715 5711 5706 5698 5693 5689 5685 5681 5678 5675 5672 5671 5671 5672 5673 5674 5675 5675 5674 5673 5671 5673 5674 5674 5673 5668 5664 5659 5655 5651 5647 5643 5638 5633 5627 5621 5616 5611 5608
5737 5735 5731 5725 5719 5715 5711 5706 5700 5696 5693 5688 5684 5680 5677 5675 5673 5674 5674 5673 5672 5673 5674 5674 5672 5671 5674 5675 5675 5673 5668 5664 5661 5657 5654 5650 5646 5642 5636 5631 5625 5620 5615 5611
5734 5728 5726 5722 5718 5715 5712 5708 5704 5701 5697 5691 5687 5683 5679 5676 5675 5674 5673 5673 5674 5675 5675 5673 5671 5671 5674 5676 5675 5675 5672 5667 5663 5659 5657 5653 5650 5645 5640 5635 5629 5624 5619 5615
5741 5735 5732 5727 5721 5716 5712 5710 5707 5704 5700 5696 5691 5684 5680 5677 5675 5673 5673 5673 5674 5674 5673 5672 5669 5670 5674 5675 5674 5673 5674 5671 5667 5665 5660 5656 5652 5650 5645 5639 5635 5629 5624 5621
5742 5737 5733 5729 5725 5719 5714 5711 5707 5705 5701 5697 5690 5684 5682 5680 5677 5675 5673 5671 5670 5669 5669 5670 5668 5671 5674 5671 5670 5672 5674 5675 5672 5669 5664 5658 5654 5653 5648 5644 5639 5635 5631 5627
5739 5736 5732 5729 5726 5721 5716 5712 5708 5703 5700 5696 5690 5685 5682 5680 5679 5676 5673 5670 5670 5669 5668 5667 5666 5669 5671 5669 5667 5669 5672 5674 5674 5672 5668 5663 5659 5656 5652 5648 5643 5639 5636 5632
5732 5731 5728 5725 5722 5719 5716 5712 5706 5701 5698 5694 5689 5685 5682 5681 5680 5676 5672 5669 5671 5669 5666 5666 5666 5667 5667 5665 5666 5669 5672 5674 5675 5674 5671 5667 5664 5660 5656 5652 5648 5644 5640 5636
5724 5724 5722 5720 5718 5714 5712 5710 5705 5700 5695 5691 5687 5683 5681 5680 5678 5676 5675 5671 5671 5668 5665 5665 5666 5663 5663 5663 5666 5669 5671 5674 5675 5675 5673 5671 5668 5664 5661 5657 5652 5648 5644 5641
5717 5717 5715 5714 5712 5709 5707 5705 5702 5698 5693 5688 5685 5681 5679 5677 5676 5674 5672 5674 5672 5667 5665 5664 5663 5662 5662 5663 5667 5671 5673 5675 5675 5675 5674 5672 5670 5668 5665 5661 5657 5652 5648 5645
5706 5708 5708 5708 5706 5703 5700 5698 5697 5695 5691 5687 5683 5681 5677 5675 5673 5674 5673 5672 5670 5666 5665 5664 5663 5662 5662 5663 5667 5672 5674 5675 5676 5676 5676 5674 5672 5670 5667 5664 5660 5656 5652 5649
5691 5695 5698 5697 5696 5695 5695 5693 5691 5689 5685 5682 5680 5678 5676 5674 5671 5671 5671 5671 5669 5665 5664 5664 5664 5663 5663 5664 5668 5670 5672 5674 5675 5675 5674 5673 5671 5669 5667 5665 5662 5659 5655 5652
5671 5676 5681 5684 5686 5685 5686 5685 5683 5681 5678 5674 5673 5673 5672 5670 5669 5667 5665 5665 5665 5664 5663 5662 5662 5663 5664 5666 5666 5666 5668 5670 5673 5672 5672 5671 5670 5668 5666 5665 5664 5661 5658 5654
5652 5657 5660 5663 5669 5672 5673 5674 5673 5672 5671 5668 5666 5666 5666 5665 5664 5662 5661 5661 5661 5661 5661 5662 5662 5663 5663 5663 5663 5664 5666 5668 5670 5671 5671 5670 5669 5668 5666 5665 5663 5661 5659 5656